Location: Unspecified
(0.0000°N, 0.0000°E)
Time: 14:00:47
(UTC+00:00)

A-11 Canister half - Pass Details

Date: 23 May 2026
Orbit: 1515 x 1685 km, 47.2° (Epoch: 8 June)

Event Time Altitude Azimuth Distance (km) Brightness Sun altitude
Rises 18:09:30 0° 256° (WSW) 4,894 12.7 -3.0°
Reaches altitude 10° 18:14:06 10° 274° (W) 3,878 12.7 -4.0°
Maximum altitude 18:20:13 18° 313° (NW) 3,232 11.9 -5.5°
Drops below altitude 10° 18:26:16 10° 352° (N) 3,786 11.5 -6.9°
Sets 18:30:45 0° 11° (N) 4,736 11.7 -7.9°
